Content
SEND FEEDBACK

Daily
Averages
Monthly
Summary
United States of America

BAY CITY, TEXAS


Home > North America > United States > Texas
Elevation: 5 feet     Latitude: 28 59N     Longitude: 095 59W

WEATHER
 
SELECT A DAY
Number of Records: 277,376;   Date Range: 3/24/03 - 7/29/14
 
SHARE

PRINT THIS DATA

[ ← Previous Day ]
WEATHER ALMANAC - JANUARY 31, 2013
[ Next Day → ]
[ °C ]   °F
Weather ElementAverageHighLow
Temperature51 °F68.9 °F (12:35 pm)33.1 °F (5:15 am)
Dewpoint33.8 °F44.4 °F (9:15 am)24.3 °F (12:15 pm)
Humidity61 %100 % (4:55 am)19 % (12:15 pm)
Barometer30.28 in30.33 in (9:55 am)30.22 in (3:55 am)
Wind Speed4.4 mph13.8 mph (2:35 pm)
Wind Gust19.6 mph (2:35 pm)
Weather ElementAverage
Visibility9.8 mi
Wind DirectionESE (103.6 °)

Weather ElementTotal
Precipitation---
Heating Degree Days14 (Base 65)
Growing Degree Days1 (Base 50)
Averaged from 70 records on January 31, 2013
WEATHER CONDITIONS BREAKOUT
WIND DIRECTION BREAKOUT
WEATHER BY HOUR - JANUARY 31, 2013
[ °C ]   °F
Local TimeTemperatureDewpointHumidityBarometerVisibilityWind DirectionWind SpeedGust SpeedPrecipitationEventsConditions
12:35 AM38.1 °F32.7 °F81 %30.25 in10.0 miCalmClear
12:55 AM36.9 °F32.9 °F86 %30.25 in10.0 miCalmClear
1:15 AM36.7 °F32.5 °F85 %30.25 in10.0 miCalmClear
1:35 AM36.3 °F32.2 °F85 %30.26 in10.0 miCalmClear
1:55 AM35.6 °F32.7 °F89 %30.26 in10.0 miCalmClear
2:15 AM35.2 °F32.4 °F89 %30.24 in10.0 miCalmClear
2:35 AM35.6 °F32.0 °F87 %30.25 in10.0 miCalmClear
2:55 AM36.0 °F32.2 °F86 %30.25 in10.0 miCalmClear
3:15 AM36.0 °F32.7 °F88 %30.24 in10.0 miCalmClear
3:35 AM35.6 °F32.9 °F90 %30.23 in10.0 miCalmClear
3:55 AM35.2 °F34.7 °F98 %30.22 in10.0 miCalmClear
4:15 AM34.5 °F34.2 °F99 %30.22 in10.0 miCalmClear
4:35 AM33.8 °F32.7 °F96 %30.22 in10.0 miCalmClear
4:55 AM33.6 °F33.6 °F100 %30.22 in10.0 miCalmClear
5:15 AM33.1 °F33.1 °F100 %30.22 in10.0 miCalmClear
5:35 AM33.1 °F33.1 °F100 %30.23 in10.0 miCalmClear
5:55 AM33.8 °F33.8 °F100 %30.23 in10.0 miCalmClear
6:15 AM34.2 °F34.2 °F100 %30.24 in10.0 miCalmClear
6:55 AM34.3 °F34.3 °F100 %30.25 in10.0 miCalmClear
7:15 AM34.7 °F34.7 °F100 %30.27 in10.0 miCalmClear
7:35 AM35.2 °F35.2 °F100 %30.28 in10.0 miCalmClear
7:55 AM36.7 °F34.2 °F91 %30.29 in10.0 miCalmClear
8:15 AM39.4 °F35.2 °F85 %30.30 in10.0 miCalmClear
8:35 AM43.7 °F39.4 °F85 %30.30 in10.0 miCalmClear
8:55 AM48.7 °F41.7 °F77 %30.30 in10.0 miCalmClear
9:15 AM53.6 °F44.4 °F71 %30.31 in10.0 miCalmClear
9:35 AM57.9 °F42.6 °F57 %30.32 in10.0 miSSW (210°)4.6 mphClear
9:55 AM60.6 °F38.7 °F44 %30.33 in10.0 miSSW (210°)8.1 mphClear
10:15 AM62.4 °F34.7 °F36 %30.32 in10.0 miSouth (180°)8.1 mphClear
10:35 AM64.0 °F30.4 °F28 %30.33 in10.0 miSSW (200°)4.6 mphClear
10:55 AM65.1 °F27.9 °F25 %30.33 in10.0 miSW (220°)8.1 mphClear
11:15 AM65.7 °F26.2 °F23 %30.33 in10.0 miSSW (200°)9.2 mphClear
11:35 AM66.7 °F25.7 °F21 %30.32 in10.0 miSouth (190°)5.8 mphClear
11:55 AM67.5 °F25.9 °F21 %30.32 in10.0 miSW (220°)5.8 mphClear
12:15 PM68.4 °F24.3 °F19 %30.32 in10.0 miSW (220°)8.1 mphClear
12:35 PM68.9 °F25.2 °F19 %30.31 in10.0 miSouth (190°)11.5 mphClear
12:55 PM67.8 °F25.2 °F20 %30.30 in10.0 miSSW (210°)9.2 mphClear
1:15 PM68.7 °F28.9 °F23 %30.29 in10.0 miSSW (200°)10.4 mphClear
1:35 PM68.7 °F28.0 °F22 %30.28 in10.0 miSouth (190°)10.4 mph18.4 mphClear
1:55 PM68.9 °F26.1 °F20 %30.27 in7.0 miSSW (200°)6.9 mph16.1 mphClear
2:15 PM67.6 °F27.0 °F22 %30.27 in3.0 miSSW (210°)12.7 mphHaze
2:35 PM67.5 °F28.6 °F23 %30.26 in4.0 miSouth (180°)13.8 mph19.6 mphHaze
2:55 PM66.7 °F29.3 °F25 %30.25 in10.0 miSouth (180°)9.2 mphClear
3:15 PM68.0 °F27.9 °F22 %30.24 in10.0 miSSW (200°)9.2 mph17.3 mphClear
3:35 PM66.9 °F28.2 °F23 %30.24 in10.0 miSSW (200°)11.5 mphClear
3:55 PM66.2 °F27.5 °F23 %30.25 in10.0 miSouth (190°)11.5 mphClear
4:15 PM65.1 °F27.7 °F24 %30.24 in10.0 miSouth (170°)11.5 mph19.6 mphClear
4:35 PM63.9 °F30.2 °F28 %30.25 in10.0 miSSE (160°)11.5 mphClear
4:55 PM63.3 °F32.2 °F31 %30.26 in10.0 miSouth (170°)10.4 mphClear
5:15 PM62.2 °F32.4 °F33 %30.26 in10.0 miSouth (170°)9.2 mphClear
5:35 PM61.5 °F32.4 °F33 %30.26 in10.0 miSouth (180°)8.1 mphClear
5:55 PM60.3 °F33.6 °F37 %30.25 in10.0 miSouth (170°)5.8 mphClear
6:15 PM58.3 °F34.7 °F41 %30.26 in10.0 miSouth (170°)5.8 mphClear
6:35 PM56.5 °F35.2 °F45 %30.26 in10.0 miSSE (160°)5.8 mphClear
6:55 PM54.9 °F36.0 °F49 %30.25 in10.0 miSSE (150°)5.8 mphClear
7:15 PM54.0 °F36.1 °F51 %30.26 in10.0 miSSE (150°)6.9 mphClear
7:35 PM52.9 °F36.5 °F54 %30.27 in10.0 miSSE (160°)5.8 mphClear
7:55 PM51.6 °F37.6 °F59 %30.28 in10.0 miSSE (150°)6.9 mphClear
8:15 PM51.8 °F39.4 °F63 %30.29 in10.0 miSSE (160°)4.6 mphClear
8:35 PM51.8 °F40.6 °F66 %30.30 in10.0 miSSE (150°)4.6 mphClear
8:55 PM51.1 °F41.0 °F68 %30.30 in10.0 miSE (130°)3.5 mphClear
9:15 PM50.2 °F41.2 °F71 %30.31 in10.0 miSE (130°)3.5 mphClear
9:35 PM50.0 °F41.4 °F72 %30.31 in10.0 miSE (130°)3.5 mphClear
9:55 PM48.7 °F40.8 °F74 %30.31 in10.0 miSE (140°)3.5 mphClear
10:15 PM47.3 °F40.6 °F78 %30.31 in10.0 miSSE (160°)5.8 mphClear
10:35 PM46.9 °F40.6 °F79 %30.32 in10.0 miCalmClear
10:55 PM46.8 °F41.2 °F81 %30.32 in10.0 miSSE (160°)3.5 mphClear
11:15 PM45.7 °F40.5 °F82 %30.31 in10.0 miSE (130°)3.5 mphClear
11:35 PM44.8 °F40.8 °F86 %30.32 in10.0 miCalmClear
11:55 PM46.4 °F41.9 °F84 %30.31 in10.0 miCalmClear
Hourly data recorded from KBYY, located miles away from Bay City, Texas







STORIES FROM OUR PARTNERS